Regional Weather Roundup
Issued by NWS

Home | Current Version | Previous Version | Text Only | Print | Product List | Glossary On
Versions: 1 2 3 4 5 6 7 8 9 10 11 12 13 14 15 16 17 18 19 20 21 22 23 24 25 26 27 28 29 30 31 32 33 34 35 36 37 38 39 40 41 42 43 44 45 46 47 48 49 50
000
ASUS43 KMKX 030900
RWRWI

WISCONSIN REGIONAL WEATHER ROUNDUP
NATIONAL WEATHER SERVICE MILWAUKEE/SULLIVAN WI
400 AM CDT SUN MAY 03 2015

NOTE: "FAIR" INDICATES FEW OR NO CLOUDS BELOW 12,000 FEET WITH NO
SIGNIFICANT WEATHER AND/OR OBSTRUCTIONS TO VISIBILITY.

WIZ001-002-006>008-014>016-023>028-031000-
NORTHWEST WISCONSIN

CITY           SKY/WX    TMP DP  RH WIND       PRES   REMARKS
SUPERIOR ARPT  CLOUDY    40  39  93 CALM      29.70S
ASHLAND        CLOUDY    65  50  58 S10G17    29.71F
HAYWARD        MOCLDY    62  50  64 S15G22    29.77R
SIREN          PTCLDY    62  50  66 SW14      29.75R
CUMBERLAND     CLEAR     54  46  76 SW6       29.79S
RICE LAKE      CLEAR     59  48  67 SW5       29.81R
CHETEK         CLEAR     59  49  69 S9        29.79S
LADYSMITH      CLEAR     58  50  74 S6        29.81F
EAU CLAIRE     NOT AVBL
MENOMONIE      CLEAR     60  49  66 S12G20    29.80S
NEW RICHMOND   CLEAR     58  48  69 SW6       29.79R
OSCEOLA        PTCLDY    59  51  72 S7        29.81R
$$

WIZ003>005-009-010-017-018-031000-
NORTH CENTRAL WISCONSIN

CITY           SKY/WX    TMP DP  RH WIND       PRES   REMARKS
MANITOWISH WTR PTCLDY    58  50  73 SW8       29.79S
ARBOR VITAE    PTCLDY    58  49  72 S5        29.81S
WOODRUFF       PTCLDY    58  49  72 S5        29.81S
RHINELANDER    CLEAR     58  48  69 SW9       29.83F
EAGLE RIVER    PTCLDY    59  46  62 SW7       29.81F
LAND O LAKES   PTCLDY    58  47  68 S5        29.82S
PHILLIPS       PTCLDY    58  49  72 SW9       29.80S
TOMAHAWK       CLEAR     56  48  74 CALM      29.83F
MEDFORD        CLEAR     55  48  77 S7        29.83S
MERRILL        CLEAR     57  49  74 S3        29.84S
$$

WIZ029-030-035-036-043>047-031000-
CENTRAL WISCONSIN

CITY           SKY/WX    TMP DP  RH WIND       PRES   REMARKS
WAUSAU         CLEAR     58  49  72 S8        29.83F
MOSINEE        CLEAR     54  46  76 S9        29.87S
MARSHFIELD     CLEAR     54  48  80 S9        29.85S
STEVENS POINT  CLEAR     52  45  76 S7        29.87S
WAUPACA        CLEAR     56  44  65 S3        29.88S
WAUTOMA        NOT AVBL
WISC RAPIDS    CLEAR     55  46  71 S5        29.87F
CAMP DOUGLAS   NOT AVBL
$$

WIZ011>013-019>022-031-037>040-048>050-031000-
NORTHEAST WISCONSIN

CITY           SKY/WX    TMP DP  RH WIND       PRES   REMARKS
ANTIGO         CLEAR     53  47  77 SW8       29.86S
SHAWANO        CLEAR     55  43  66 CALM      29.87S
OCONTO         CLEAR     47  42  81 S3        29.86S
STURGEON BAY   CLEAR     57  43  58 SW9       29.89S
GREEN BAY      CLEAR     57  47  69 SW7       29.88S
MANITOWOC      NOT AVBL
APPLETON       CLEAR     55  43  62 SW9       29.89S
CLINTONVILLE   CLEAR     55  43  62 CALM      29.87R
OSHKOSH        CLEAR     55  45  68 S9        29.89F
$$

WIZ032>034-041-042-053>061-031000-
SOUTHWEST WISCONSIN

CITY           SKY/WX    TMP DP  RH WIND       PRES   REMARKS
LA CROSSE      CLEAR     60  52  74 S5        29.84S
SPARTA         CLEAR     51  46  82 CALM      29.87S
VIROQUA        PTCLDY    56  50  80 S9        29.88S
BOSCOBEL       MOCLDY    57  50  77 VRB3      29.88F
PRAIRIE DU CHI MOCLDY    62  48  61 SE6       29.87F
PLATTEVILLE    MOCLDY    58  50  74 S8        29.91S
$$

WIZ056-057-062-063-064-067-068-031000-
SOUTH CENTRAL WISCONSIN

CITY           SKY/WX    TMP DP  RH WIND       PRES   REMARKS
REEDSBURG      MOCLDY    57  50  76 S5        29.89S
BARABOO/DELLS  NOT AVBL
LONE ROCK      NOT AVBL
MINERAL POINT  MOCLDY    57  50  77 S7        29.92R
MADISON        CLOUDY    60  48  64 S8        29.91F
MIDDLETON      MOCLDY    60  47  61 SW5       29.91F
WATERTOWN      MOCLDY    55  45  69 S3        29.92S
MONROE         CLOUDY    55  48  76 S10       29.92F
JANESVILLE     MOCLDY    59  43  55 S3        29.93S
$$

WIZ051-052-058>065-066-070>072-031000-
SOUTHEAST WISCONSIN

CITY           SKY/WX    TMP DP  RH WIND       PRES   REMARKS
MILWAUKEE      MOCLDY    59  40  49 SW8       29.93F
WAUKESHA       MOCLDY    55  41  58 S3        29.95S
MILWAUKEE/TIMM MOCLDY    57  37  47 S3        29.94F
RACINE         CLOUDY    58  40  51 SW7       29.96S
BURLINGTON     MOCLDY    51  43  73 CALM      29.94F
KENOSHA        CLOUDY    57  42  57 S6        29.95S
FOND DU LAC    PTCLDY    59  46  62 SW8       29.90F
SHEBOYGAN      CLEAR     56  44  64 SW9       29.91S
WEST BEND      CLEAR     55  43  62 SW3       29.93S
JUNEAU         PTCLDY    55  46  73 S8        29.93S
$$

LSZ147-162-031000-
LAKE SUPERIOR

STATION/POSITION TIME  TEMP    WIND        PRES    WAVE
                       AIR SEA DIR/SP/G            HT/PER
                 (UTC) (F)     (DEG/KT/KT) (MB)    (FT/S)
W MID LAKE BUOY  0750   47 35  190/ 10/ 12 1006.0F   0
DEVILS ISLAND    0800   51     280/  3/  4 1005.9S
PORT WING        0840   40     100/  2/  4 1005.8F
SAXON HARBOR     0800   67     190/  7/ 18 1005.8F
$$

LMZ867-665-643>646-031000-
LAKE MICHIGAN

STATION/POSITION TIME  TEMP    WIND        PRES    WAVE
                       AIR SEA DIR/SP/G            HT/PER
                 (UTC) (F)     (DEG/KT/KT) (MB)    (FT/S)
CHAMBERS ISLAND  0800   57     170/  6/ 11 1011.2S
NORTHPORT PIER   0800   55     180/  2/  9 1010.8F
SISTER BAY       0832   64     220/ 14/ 18   N/A
KEWAUNEE LAKESHO 0800   60     240/  6/  9 1011.1F
SHEBOYGAN LAKESH 0800   54     180/  6/  6 1013.1F
PORT WASHINGTON  0840   60     250/  3/  5 1013.9S
ATWATER BUOY     0800   59     230/ 10/ 10 1015.0R
MILWAUKEE LAKESH 0800   63     230/  9/ 11   N/A
KENOSHA   LAKESH 0800   63     230/  9/ 12 1014.2S
$$

TC  - TEMPERATURE IN CELSIUS
VSB - VISIBILITY IN STATUTE MILES
WCI - WIND CHILL INDEX
HX  - HEAT INDEX



USA.gov is the U.S. government's official web portal to all federal, state and local government web resources and services.